sat.trackr.live / text

‹ back to catalog

KUIPER-00061

NORAD 64521 · 2025-134X

PAYLOAD ACTIVE UNKNOWN

§ Identity

Operator
Country
US
Launch date
2025-06-23
Launch site
AFETR
Launch vehicle
Mass (kg)
RCS (m²)

External: N2YO · Heavens-Above · Gunter

§ Orbital elements

Epoch: 2026-09-21T21:03:25.034976Z

Period
97.30 min
Inclination
51.8996°
Eccentricity
0.0000893
Mean motion
14.79940648 rev/d
Perigee alt
628.9 km
Apogee alt
630.1 km
Semi-major
7,007.6 km
B*
2.4823e-4
RAAN
80.5602°
Arg perigee
122.6553°
Mean anomaly
237.4496°
Rev number
6,918

§ Raw data

KUIPER-000611 64521U 25134X   26264.87737309  .00001672  00000+0  24823-3 0  99942 64521  51.8996  80.5602 0000893 122.6553 237.4496 14.79940648 69184

JSON: /api/v1/satellites/64521 · /tle

For live sub-satellite position, see the globe view (requires WebGL).

§ Visibility from observer

Set your observer location to see the next 7 days of passes ≥ 10°. The values pass through the URL so the page stays shareable.

No JS? Fill the form by hand. The geolocation button needs JavaScript.